Volver al catálogo

IRIDIUM 33 DEB

ActivoPO
NORAD 35809·DEBRIS·🇺🇸 United States

Lanzado Sep 14, 1997 desde Baikonur Cosmodrome

Loading…

Próximos Pases (próximas 24 horas)

TLE

EnvejeciendoSource: Space-Track

Época: Sep 7, 2026, 04:25 UTC

1 35809U 97051ST  26250.18460408  .00006036  00000-0  77767-3 0  9995
2 35809  86.3261 212.4915 0014245  42.2278 318.0038 14.80845514907748

Sigue IRIDIUM 33 DEB en tiempo real con AllMySat

Download on the App Store